DW0542 Weather Reports


time (UTC)temp
C
wind
direction
speed
KPH
gust
KPH
rain 1hr
cm
rain 24hr
cm
rain mn
cm
humidity
%
barometer
mb
20260509093021 5 230 0.0 0.0 0.00 0.00 0.00 86 1014.7
20260509091521 5 230 0.0 0.0 0.00 0.00 0.00 86 1014.3
20260509090020 4 230 0.0 0.0 0.00 0.00 0.00 86 1014.1
20260509083016 3 230 0.0 0.0 0.00 0.00 0.00 86 1014.3
20260509081515 3 230 0.0 0.0 0.00 0.00 0.00 87 1014.2
20260509080014 3 230 0.0 0.0 0.00 0.00 0.00 88 1014.2
20260509074514 2 230 0.0 0.0 0.00 0.00 0.00 88 1014.6
20260509073013 2 230 0.0 0.0 0.00 0.00 0.00 88 1014.4
20260509071512 2 230 0.0 0.0 0.00 0.00 0.00 87 1014.4
20260509070009 2 230 0.0 0.0 0.00 0.00 0.00 87 1014.6
20260509064509 2 230 0.0 0.0 0.00 0.00 0.00 87 1014.6
20260509063007 2 230 0.0 0.0 0.00 0.00 0.00 86 1014.7
20260509061513 3 230 0.0 0.0 0.00 0.00 0.00 86 1014.8
20260509060003 3 230 0.0 0.0 0.00 0.00 0.00 86 1014.6
20260509054502 3 230 0.0 0.0 0.00 0.00 0.00 86 1014.7
20260509053002 3 230 0.0 0.0 0.00 0.00 0.00 85 1014.7
20260509051608 3 230 0.0 0.0 0.00 0.00 0.00 85 1014.5
20260509050029 3 230 0.0 0.0 0.00 0.00 0.00 84 1014.4
20260509044526 3 230 0.0 0.0 0.00 0.00 0.00 84 1014.3
20260509043055 3 230 0.0 0.0 0.00 0.00 0.00 83 1014.4
20260509041553 3 230 0.0 0.0 0.00 0.00 0.00 83 1014.4
20260509040049 3 230 0.0 0.0 0.00 0.00 0.00 83 1014.3
20260509034547 4 230 0.0 0.0 0.00 0.00 0.00 82 1014.1
20260509033045 4 230 0.0 0.0 0.00 0.00 0.00 81 1014.0
20260509031553 5 230 0.0 0.0 0.00 0.00 0.00 80 1014.0
20260509030013 5 230 0.0 0.0 0.00 0.00 0.00 79 1013.9
20260509024510 5 230 0.0 0.0 0.00 0.00 0.00 77 1013.7
20260509023003 5 230 0.0 0.0 0.00 0.00 0.00 76 1013.8
20260509021600 6 230 0.0 0.0 0.00 0.00 0.00 74 1013.6
20260509020058 6 230 0.0 0.0 0.00 0.00 0.00 72 1013.6
20260509014553 6 230 0.0 0.0 0.00 0.00 0.00 70 1013.5
20260509013048 7 230 0.0 0.0 0.00 0.00 0.00 68 1013.1
20260509011543 8 230 0.0 0.0 0.00 0.00 0.00 66 1012.8
20260509010044 10 230 0.0 0.0 0.00 0.00 0.00 60 1012.6
20260509004535 10 230 0.0 0.0 0.00 0.00 0.00 58 1012.2
20260509003028 10 230 0.0 0.0 0.00 0.00 0.00 57 1012.0
20260509001530 11 230 0.0 0.0 0.00 0.00 0.00 56 1011.9
20260509000021 11 230 0.0 0.0 0.00 0.00 0.00 57 1011.8
20260508234518 11 255 0.0 0.0 0.00 0.00 0.00 54 1011.4
20260508233013 11 253 0.0 4.8 0.00 0.00 0.00 56 1011.1
20260508231510 12 261 0.0 9.7 0.00 0.00 0.00 54 1010.9
20260508230008 12 257 9.7 17.7 0.00 0.00 0.00 52 1010.9
20260508224508 12 251 8.0 20.9 0.00 0.00 0.00 53 1010.8
20260508223006 12 254 8.0 27.4 0.00 0.00 0.00 53 1010.7
20260508221600 12 274 14.5 29.0 0.00 0.00 0.00 53 1010.6
20260508220120 12 271 19.3 30.6 0.00 0.00 0.00 53 1010.7
20260508214557 12 262 12.9 32.2 0.00 0.00 0.00 53 1010.6
20260508213052 12 293 19.3 32.2 0.00 0.00 0.00 56 1010.5
20260508211549 12 290 24.1 35.4 0.00 0.00 0.00 56 1010.4
20260508210048 12 284 17.7 29.0 0.00 0.00 0.00 57 1010.3
20260508204546 11 238 9.7 24.1 0.00 0.00 0.00 57 1010.4
20260508203047 11 276 8.0 24.1 0.00 0.00 0.00 61 1010.5
20260508201513 10 257 17.7 27.4 0.00 0.00 0.00 64 1010.7
20260508200012 10 247 19.3 32.2 0.00 0.00 0.00 65 1010.7
20260508194510 11 259 14.5 22.5 0.00 0.00 0.00 62 1010.7
20260508193008 10 270 17.7 33.8 0.00 0.00 0.00 62 1010.6
20260508191605 11 322 22.5 35.4 0.00 0.00 0.00 61 1010.5
20260508190010 11 295 19.3 30.6 0.00 0.00 0.00 60 1010.5
20260508184544 11 273 16.1 33.8 0.00 0.00 0.00 57 1010.4
20260508183035 12 301 19.3 32.2 0.00 0.00 0.00 55 1010.0
20260508181503 12 266 14.5 24.1 0.00 0.00 0.00 51 1009.9
20260508180002 13 243 6.4 22.5 0.00 0.00 0.00 52 1009.7
20260508174620 13 239 4.8 17.7 0.00 0.00 0.00 45 1009.5
20260508173101 13 292 3.2 25.7 0.00 0.00 0.00 48 1009.6
20260508171559 13 220 6.4 19.3 0.00 0.00 0.00 44 1009.7
20260508170100 12 226 1.6 17.7 0.00 0.00 0.00 46 1009.7
20260508164529 12 251 12.9 24.1 0.00 0.00 0.00 48 1010.0
20260508163036 12 286 1.6 22.5 0.00 0.00 0.00 47 1010.1
20260508161531 12 295 8.0 20.9 0.00 0.00 0.00 50 1010.2
20260508160023 12 206 9.7 25.7 0.00 0.00 0.00 50 1010.3
20260508154523 11 299 9.7 22.5 0.00 0.00 0.00 52 1010.3
20260508153023 11 310 12.9 24.1 0.00 0.00 0.00 55 1010.4
20260508151552 11 271 9.7 20.9 0.00 0.00 0.00 52 1010.5
20260508150054 11 247 3.2 19.3 0.00 0.00 0.00 51 1010.6
20260508144554 11 280 11.3 24.1 0.00 0.00 0.00 55 1010.6
20260508143053 11 265 6.4 19.3 0.00 0.00 0.00 52 1010.7
20260508141555 10 293 11.3 25.7 0.00 0.00 0.00 59 1010.8
20260508140045 10 290 9.7 22.5 0.00 0.00 0.00 53 1010.9
20260508134555 10 308 9.7 19.3 0.00 0.00 0.00 56 1010.9
20260508133042 10 259 12.9 27.4 0.00 0.00 0.00 54 1011.2
20260508131541 10 280 16.1 22.5 0.00 0.00 0.00 54 1011.2
20260508124511 9 272 12.9 22.5 0.00 0.00 0.00 53 1011.2
20260508123008 9 265 3.2 16.1 0.00 0.00 0.00 55 1011.1
20260508121506 8 295 8.0 19.3 0.00 0.00 0.00 56 1011.1
20260508120105 8 287 3.2 14.5 0.00 0.00 0.00 58 1011.1
20260508114504 7 297 1.6 12.9 0.00 0.00 0.00 63 1011.1
20260508113006 7 286 0.0 6.4 0.00 0.00 0.00 64 1011.1
20260508111534 5 288 0.0 6.4 0.00 0.00 0.00 76 1011.0
20260508110030 4 295 0.0 0.0 0.00 0.00 0.00 84 1010.9
20260508104526 3 295 0.0 0.0 0.00 0.00 0.00 85 1010.6
20260508103033 3 295 0.0 0.0 0.00 0.03 0.00 85 1010.5
20260508101522 3 295 0.0 0.0 0.00 0.03 0.00 84 1010.4
20260508100025 3 295 0.0 0.0 0.00 0.03 0.00 85 1010.2
20260508094517 3 295 0.0 0.0 0.00 0.03 0.00 84 1010.1